カタログに戻る

ARIANE 2 DEB

LostGTO
NORAD 27044·DEBRIS·🇫🇷 France

打ち上げ Jan 27, 1989 から Guiana Space Centre

Loading…

TLE

古いSource: Space-Track

元期: May 31, 2025, 03:16 UTC

1 27044U 89006Z   25151.13670889  .00005091  00000-0  21149-1 0  9999
2 27044   7.6140 160.7271 7137298 273.9800  14.4591  2.35550517199452

AllMySatでARIANE 2 DEBをリアルタイム追跡

Download on the App Store